Tracking 19709 objects as of 20-Jun-2019
HD Live streaming from Space Station
objects crossing your sky now

HIBER-2

Track HIBER-2 now!
10-day predictions


NORAD ID: 43774
Int'l Code: 2018-099S
Perigee: 581.5 km
Apogee: 598.1 km
Inclination: 97.7 °
Period: 96.3 minutes
Semi major axis: 6960 km
RCS: Unknown
Launch date: December 3, 2018
Source: Netherlands (NETH)
Launch site: AIR FORCE WESTERN TEST RANGE (AFWTR)
aabbcc
Your satellite tracking list
Your tracking list is empty




NASA's NSSDC Master Catalog

Two Line Element Set (TLE):
1 43774U 18099S   19169.88540098 +.00000524 +00000-0 +53272-4 0  9994
2 43774 097.7485 241.8611 0011913 330.5170 029.5377 14.94897542029449
Source of the keplerian elements: AFSPC